Regional Weather Roundup
Issued by NWS Sterling, VA

Home | Current Version | Previous Version | Text Only | Print | Product List | Glossary Off
Versions: 1 2 3 4 5 6 7 8 9 10 11 12 13 14 15 16 17 18 19 20 21 22 23 24 25 26 27 28 29 30 31 32 33 34 35 36 37 38 39 40 41 42 43 44 45 46 47

000
ASUS41 KLWX 010810
RWRLWX

REGIONAL WEATHER ROUNDUP
NATIONAL WEATHER SERVICE BALTIMORE MD/WASHINGTON DC
300 AM EST SUN MAR 01 2015

Note: "FAIR" indicates few or no clouds below 12,000 feet
with no significant weather and/or obstructions to visibility.
 TC=TEMPERATURE CELSIUS

 * =Non NWS site. Station does not report precipitation (e.g. rain,
    snow, etc.), thunder, or fog.

DCZ001-MDZ009-015-VAZ040>042-051-053>054-010900-
WASHINGTON METRO

CITY           SKY/WX    TMP DP  RH WIND       PRES   REMARKS
WASHINGTON NAT CLOUDY    27  13  55 S3        30.71F
DULLES         CLOUDY    22  12  65 CALM      30.68F
ANDREWS AFB    CLOUDY    23  11  60 S5        30.68F
FT BELVOIR     CLOUDY    23  14  70 NE1       30.69F
QUANTICO       CLOUDY    26  12  55 S8        30.70F WCI  18
COLLEGE PARK*  CLOUDY    23  16  74 CALM      30.70F
LEESBURG*      CLOUDY    23  14  68 CALM      30.68F
MANASSAS*      CLOUDY    21  16  79 CALM      30.68F
GAITHERSBURG*  CLOUDY    19   9  63 CALM      30.70F

$$

MDZ006>007-011-014-010900-
BALTIMORE METRO

CITY           SKY/WX    TMP DP  RH WIND       PRES   REMARKS
BWI AIRPORT    CLOUDY    18  10  71 CALM      30.70F
MD SCIENCE CTR   N/A      1  32 100 MISG      30.71S
MARTIN STATE   MOCLDY    19  12  73 CALM      30.72F
ANNAPOLIS      CLOUDY    21  15  78 CALM      30.71F
FORT MEADE*    CLOUDY    18  12  79 CALM      30.72F

$$

MDZ012-015-019>023-010900-
MARYLAND EASTERN SHORE

CITY           SKY/WX    TMP DP  RH WIND       PRES   REMARKS
OCEAN CITY     CLEAR     14  10  84 N5        30.70F
SALISBURY      CLEAR     17  11  77 CALM      30.70F
BAY BRIDGE AP*   N/A     23  14  68 CALM      30.71F
CAMBRIDGE*     MOCLDY    21  16  79 CALM      30.70F
EASTON*        MOCLDY    20  16  84 CALM      30.74F

$$

MDZ017>025-010900-
SOUTHERN MARYLAND

CITY           SKY/WX    TMP DP  RH WIND       PRES   REMARKS
PATUXENT RIVER PTCLDY    20  14  77 CALM      30.70F
ST INIGOES     CLEAR     16  10  77 CALM      30.70F
LEONARDTOWN*   MOCLDY    21  16  79 CALM      30.71F

$$

MDZ003>005-010900-
NORTH CENTRAL MARYLAND

CITY           SKY/WX    TMP DP  RH WIND       PRES   REMARKS
FREDERICK*     CLOUDY    19   9  63 CALM      30.71F
HAGERSTOWN APT CLOUDY    25   6  44 SE8       30.63F WCI  16
WESTMINSTER*   MOCLDY    21   7  53 S6        30.64F

$$

MDZ501>502-010900-
WESTERN MARYLAND

CITY           SKY/WX    TMP DP  RH WIND       PRES   REMARKS
OAKLAND*       CLOUDY    19  12  73 SE6       30.40F HAZE
CUMBERLAND*    MOCLDY    27  10  50 CALM      30.63F

$$

VAZ025>031-010900-
SHENANDOAH VALLEY

CITY           SKY/WX    TMP DP  RH WIND       PRES   REMARKS
WINCHESTER*    CLOUDY    25   5  42 CALM      30.61F
FRONT ROYAL*   CLOUDY    23  12  63 CALM      30.61F
LURAY*         CLOUDY    28  16  59 S3        30.59F
NEW MARKET*    CLOUDY    17  12  79 CALM      30.59F
STAUNTON*      MOCLDY    23  11  60 CALM      30.59F
WAYNESBORO*    PTSUNNY   23  10  58 CALM      30.56F

$$

WVZ021-048>050-054>055-010900-
EASTERN WEST VIRGINIA PANHANDLE

CITY           SKY/WX    TMP DP  RH WIND       PRES   REMARKS
MARTINSBURG    CLOUDY    24   9  52 CALM      30.63F
PETERSBURG*    NOT AVBL

$$

VAZ036>039-050-010900-
CENTRAL FOOTHILLS

CITY           SKY/WX    TMP DP  RH WIND       PRES   REMARKS
CHARLOTTESVILL CLEAR     23  11  60 CALM      30.63F
CULPEPER*      CLOUDY    23  18  80 CALM      30.66F
ORANGE*        CLEAR     21  16  79 CALM      30.66F
GORDONSVILLE*  FAIR      18  12  77 CALM      30.64F
WARRENTON*     CLOUDY    24  20  85 CALM      30.66F

$$

VAZ055>057-010900-
NORTH AND CENTRAL PIEDMONT

CITY           SKY/WX    TMP DP  RH WIND       PRES   REMARKS
FREDERICKSBRG* MOCLDY    25  15  67 CALM      30.68F
STAFFORD*      CLOUDY    23  11  60 CALM      30.72F

$$

NCZ024-NYZ072-PAZ021-071-VAZ022-071-010900-
OTHER REGIONAL OBSERVATIONS

CITY           SKY/WX    TMP DP  RH WIND       PRES   REMARKS
NEW YORK CITY  CLEAR     25  -1  32 CALM      30.70F
PHILADELPHIA   CLOUDY    22   8  55 CALM      30.72F
PITTSBURGH     LGT SNOW  22  10  60 SE5       30.47F
ROANOKE        CLOUDY    27  12  53 CALM      30.62F
RICHMOND       PTCLDY    23  13  65 CALM      30.68F
RALEIGH        CLOUDY    30  17  58 NE5       30.62F

$$

ANZ530>537-010900-
MARINE OBSERVATIONS

STATION/POSITION TIME  TEMP    WIND        PRES
                       AIR SEA DIR/SP/G
                 (UTC) (F)     (DEG/KT/KT) (MB)
THOMAS PT LIGHT  0800   26 31  160/  7/  8 1040.7F
BALT KEY BRIDGE  0700   24      CALM  /  2 1040.4F
COVE POINT       0700   25     210/  3/  5 1040.1F
LEWISETTA        0700   21 34     CALM     1040.0F
SOLOMONS ISLAND  0700      32                N/A

$$



USA.gov is the U.S. government's official web portal to all federal, state and local government web resources and services.